Вернуться в каталог

THOR AGENA D R/B

АктивенLEO
NORAD 727·ROCKET BODY·🇺🇸 United States

Запущен Jan 11, 1964 с Vandenberg Space Force Base

Loading…

Ближайшие Пролёты (ближайшие 24 часа)

TLE

СвежийSource: Space-Track

Эпоха: Sep 14, 2026, 13:17 UTC

1 00727U 64001A   26257.55391227 -.00000004  00000-0  36537-4 0  9996
2 00727  69.9041  98.5897 0016206 290.0122  69.9237 13.95806177189623

Отслеживайте THOR AGENA D R/B в реальном времени с AllMySat

Download on the App Store